Time,TemperatureF,DewpointF,PressureIn,WindDirection,WindDirectionDegrees,WindSpeedMPH,WindSpeedGustMPH,Humidity,HourlyPrecipIn,Conditions,Clouds,dailyrainin,SoftwareType,DateUTC
2013-04-19 00:03:00,35.0,26.0,29.89,NW,307,2.0,2.0,70,0.00,,,0.07,,2013-04-19 05:03:00,
2013-04-19 00:11:00,35.0,26.0,29.89,NW,307,2.0,2.0,70,0.00,,,0.07,,2013-04-19 05:11:00,
2013-04-19 00:22:00,35.0,26.0,29.89,NW,311,0.0,0.0,70,0.00,,,0.07,,2013-04-19 05:22:00,
2013-04-19 00:32:00,35.0,27.0,29.89,WNW,299,0.0,0.0,72,0.00,,,0.07,,2013-04-19 05:32:00,
2013-04-19 00:42:00,35.0,27.0,29.89,WNW,299,0.0,0.0,72,0.00,,,0.07,,2013-04-19 05:42:00,
2013-04-19 00:52:00,35.0,27.0,29.89,NW,311,2.0,2.0,71,0.00,,,0.06,,2013-04-19 05:52:00,
2013-04-19 01:02:00,34.0,26.0,29.89,West,281,3.0,3.0,71,0.00,,,0.06,,2013-04-19 06:02:00,
2013-04-19 01:11:00,34.0,26.0,29.89,West,281,3.0,3.0,71,0.00,,,0.06,,2013-04-19 06:11:00,
2013-04-19 01:22:00,34.0,26.0,29.89,WNW,299,0.0,0.0,72,0.00,,,0.06,,2013-04-19 06:22:00,
2013-04-19 01:32:00,34.0,26.0,29.89,WNW,295,1.0,1.0,72,0.00,,,0.06,,2013-04-19 06:32:00,
2013-04-19 01:42:00,34.0,26.0,29.89,WNW,295,1.0,1.0,72,0.00,,,0.06,,2013-04-19 06:42:00,
2013-04-19 01:52:00,34.0,26.0,29.89,WNW,290,0.0,0.0,73,0.00,,,0.05,,2013-04-19 06:52:00,
2013-04-19 02:02:00,34.0,27.0,29.88,NW,306,3.0,3.0,74,0.00,,,0.05,,2013-04-19 07:02:00,
2013-04-19 02:12:00,34.0,27.0,29.88,West,271,2.0,2.0,74,0.00,,,0.05,,2013-04-19 07:12:00,
2013-04-19 02:21:00,34.0,27.0,29.88,West,271,2.0,2.0,74,0.00,,,0.05,,2013-04-19 07:21:00,
2013-04-19 02:32:00,34.0,27.0,29.88,West,279,3.0,3.0,74,0.00,,,0.05,,2013-04-19 07:32:00,
2013-04-19 02:42:00,34.0,27.0,29.88,West,279,3.0,3.0,74,0.00,,,0.05,,2013-04-19 07:42:00,
2013-04-19 02:52:00,34.0,27.0,29.87,WNW,300,2.0,2.0,74,0.00,,,0.03,,2013-04-19 07:52:00,
2013-04-19 03:02:00,34.0,27.0,29.87,WNW,300,2.0,2.0,74,0.00,,,0.03,,2013-04-19 08:02:00,
2013-04-19 03:12:00,34.0,26.0,29.87,NW,306,4.0,4.0,72,0.00,,,0.03,,2013-04-19 08:12:00,
2013-04-19 03:21:00,34.0,26.0,29.87,NW,306,4.0,4.0,72,0.00,,,0.03,,2013-04-19 08:21:00,
2013-04-19 03:32:00,34.0,26.0,29.87,West,276,3.0,3.0,73,0.00,,,0.03,,2013-04-19 08:32:00,
2013-04-19 03:42:00,34.0,26.0,29.87,NW,322,4.0,4.0,72,0.00,,,0.02,,2013-04-19 08:42:00,
2013-04-19 03:52:00,34.0,26.0,29.87,NW,322,4.0,4.0,72,0.00,,,0.02,,2013-04-19 08:52:00,
2013-04-19 04:01:00,34.0,26.0,29.87,WNW,302,2.0,2.0,72,0.00,,,0.02,,2013-04-19 09:01:00,
2013-04-19 04:12:00,34.0,26.0,29.87,WNW,302,2.0,2.0,72,0.00,,,0.02,,2013-04-19 09:12:00,
2013-04-19 04:21:00,34.0,26.0,29.87,NW,311,1.0,1.0,72,0.00,,,0.02,,2013-04-19 09:21:00,
2013-04-19 04:32:00,34.0,26.0,29.87,West,279,0.0,0.0,72,0.00,,,0.02,,2013-04-19 09:32:00,
2013-04-19 04:42:00,34.0,26.0,29.87,West,279,0.0,0.0,72,0.00,,,0.02,,2013-04-19 09:42:00,
2013-04-19 04:52:00,34.0,26.0,29.87,WNW,303,0.0,0.0,73,0.00,,,0.02,,2013-04-19 09:52:00,
2013-04-19 05:02:00,33.0,26.0,29.87,NW,309,6.0,6.0,74,0.00,,,0.02,,2013-04-19 10:02:00,
2013-04-19 05:13:00,33.0,26.0,29.88,NW,306,6.0,6.0,75,0.00,,,0.02,,2013-04-19 10:13:00,
2013-04-19 05:23:00,33.0,26.0,29.88,NW,306,6.0,6.0,75,0.00,,,0.02,,2013-04-19 10:23:00,
2013-04-19 05:33:00,32.0,25.0,29.87,WNW,292,1.0,1.0,75,0.00,,,0.02,,2013-04-19 10:33:00,
2013-04-19 05:42:00,32.0,25.0,29.88,West,267,4.0,4.0,76,0.00,,,0.02,,2013-04-19 10:42:00,
2013-04-19 05:52:00,32.0,25.0,29.88,West,267,4.0,4.0,76,0.00,,,0.02,,2013-04-19 10:52:00,
2013-04-19 06:02:00,32.0,25.0,29.88,West,273,2.0,2.0,76,0.00,,,0.02,,2013-04-19 11:02:00,
2013-04-19 06:11:00,32.0,25.0,29.88,West,273,2.0,2.0,76,0.00,,,0.02,,2013-04-19 11:11:00,
2013-04-19 06:22:00,32.0,25.0,29.88,West,281,3.0,3.0,75,0.00,,,0.02,,2013-04-19 11:22:00,
2013-04-19 06:32:00,32.0,25.0,29.89,WNW,292,2.0,2.0,74,0.00,,,0.02,,2013-04-19 11:32:00,
2013-04-19 06:42:00,32.0,25.0,29.89,WNW,292,2.0,2.0,74,0.00,,,0.02,,2013-04-19 11:42:00,
2013-04-19 06:52:00,32.0,25.0,29.89,WNW,300,0.0,0.0,74,0.00,,,0.02,,2013-04-19 11:52:00,
2013-04-19 07:02:00,32.0,25.0,29.89,WNW,294,3.0,3.0,75,0.00,,,0.02,,2013-04-19 12:02:00,
2013-04-19 07:12:00,32.0,25.0,29.90,West,281,0.0,0.0,74,0.00,,,0.02,,2013-04-19 12:12:00,
2013-04-19 07:22:00,32.0,25.0,29.90,West,281,0.0,0.0,74,0.00,,,0.02,,2013-04-19 12:22:00,
2013-04-19 07:32:00,32.0,25.0,29.91,WNW,294,4.0,4.0,74,0.00,,,0.02,,2013-04-19 12:32:00,
2013-04-19 07:42:00,32.0,25.0,29.91,WNW,294,4.0,4.0,74,0.00,,,0.02,,2013-04-19 12:42:00,
2013-04-19 07:52:00,32.0,24.0,29.91,WSW,252,5.0,5.0,73,0.00,,,0.01,,2013-04-19 12:52:00,
2013-04-19 08:01:00,32.0,24.0,29.92,NW,304,1.0,1.0,71,0.00,,,0.01,,2013-04-19 13:01:00,
2013-04-19 08:11:00,33.0,24.0,29.92,NW,312,6.0,6.0,69,0.00,,,0.01,,2013-04-19 13:11:00,
2013-04-19 08:21:00,33.0,24.0,29.92,NW,312,6.0,6.0,69,0.00,,,0.01,,2013-04-19 13:21:00,
2013-04-19 08:32:00,34.0,24.0,29.92,NW,308,6.0,6.0,67,0.00,,,0.01,,2013-04-19 13:32:00,
2013-04-19 08:42:00,34.0,24.0,29.92,NW,308,6.0,6.0,67,0.00,,,0.01,,2013-04-19 13:42:00,
2013-04-19 08:52:00,34.0,23.0,29.93,WNW,292,3.0,3.0,65,0.00,,,0.01,,2013-04-19 13:52:00,
2013-04-19 09:02:00,35.0,24.0,29.93,NW,321,10.0,10.0,64,0.00,,,0.01,,2013-04-19 14:02:00,
2013-04-19 09:11:00,35.0,23.0,29.93,WNW,293,8.0,8.0,62,0.00,,,0.01,,2013-04-19 14:11:00,
2013-04-19 09:22:00,35.0,23.0,29.93,WNW,293,8.0,8.0,62,0.00,,,0.01,,2013-04-19 14:22:00,
2013-04-19 09:32:00,36.0,23.0,29.93,WSW,252,4.0,4.0,60,0.00,,,0.01,,2013-04-19 14:32:00,
2013-04-19 09:42:00,36.0,23.0,29.93,WSW,252,4.0,4.0,60,0.00,,,0.01,,2013-04-19 14:42:00,
2013-04-19 09:52:00,37.0,24.0,29.93,WSW,252,3.0,3.0,59,0.00,,,0.00,,2013-04-19 14:52:00,
2013-04-19 10:01:00,38.0,25.0,29.93,WNW,302,3.0,3.0,58,0.00,,,0.00,,2013-04-19 15:01:00,
2013-04-19 10:12:00,38.0,25.0,29.93,WNW,302,3.0,3.0,58,0.00,,,0.00,,2013-04-19 15:12:00,
2013-04-19 10:21:00,38.0,23.0,29.93,West,281,4.0,4.0,54,0.00,,,0.00,,2013-04-19 15:21:00,
2013-04-19 10:33:00,39.0,24.0,29.96,NW,319,2.0,2.0,54,0.00,,,0.00,,2013-04-19 15:33:00,
2013-04-19 10:43:00,39.0,24.0,29.96,NW,319,2.0,2.0,54,0.00,,,0.00,,2013-04-19 15:43:00,
2013-04-19 10:52:00,40.0,22.0,29.96,NW,310,7.0,7.0,48,0.00,,,0.00,,2013-04-19 15:52:00,
2013-04-19 11:03:00,41.0,23.0,29.96,NW,314,6.0,6.0,49,0.00,,,0.00,,2013-04-19 16:03:00,
2013-04-19 11:13:00,41.0,23.0,29.96,NW,314,6.0,6.0,49,0.00,,,0.00,,2013-04-19 16:13:00,
2013-04-19 11:23:00,41.0,23.0,29.97,ENE,65,2.0,2.0,49,0.00,,,0.00,,2013-04-19 16:23:00,
2013-04-19 11:32:00,42.0,24.0,29.97,NNW,338,1.0,1.0,48,0.00,,,0.00,,2013-04-19 16:32:00,
2013-04-19 11:42:00,42.0,24.0,29.97,NNW,338,1.0,1.0,48,0.00,,,0.00,,2013-04-19 16:42:00,
2013-04-19 11:52:00,43.0,22.0,29.97,NNW,335,7.0,7.0,43,0.00,,,0.00,,2013-04-19 16:52:00,
2013-04-19 12:02:00,44.0,23.0,29.96,WNW,290,0.0,0.0,43,0.00,,,0.00,,2013-04-19 17:02:00,
2013-04-19 12:12:00,44.0,23.0,29.96,WNW,290,0.0,0.0,43,0.00,,,0.00,,2013-04-19 17:12:00,
2013-04-19 12:21:00,44.0,22.0,29.96,NNW,327,3.0,3.0,42,0.00,,,0.00,,2013-04-19 17:21:00,
2013-04-19 12:33:00,45.0,23.0,29.97,NW,304,3.0,3.0,41,0.00,,,0.00,,2013-04-19 17:33:00,
2013-04-19 12:42:00,45.0,23.0,29.97,NW,304,3.0,3.0,41,0.00,,,0.00,,2013-04-19 17:42:00,
2013-04-19 12:52:00,45.0,22.0,29.97,WNW,298,4.0,4.0,39,0.00,,,0.00,,2013-04-19 17:52:00,
2013-04-19 13:02:00,45.0,21.0,29.96,North,5,11.0,11.0,38,0.00,,,0.00,,2013-04-19 18:02:00,
2013-04-19 13:13:00,45.0,21.0,29.96,North,5,11.0,11.0,38,0.00,,,0.00,,2013-04-19 18:13:00,
2013-04-19 13:23:00,46.0,23.0,29.97,NNW,329,7.0,7.0,40,0.00,,,0.00,,2013-04-19 18:23:00,
2013-04-19 13:33:00,47.0,25.0,29.97,WNW,289,7.0,7.0,41,0.00,,,0.00,,2013-04-19 18:33:00,
2013-04-19 13:43:00,47.0,25.0,29.97,WNW,289,7.0,7.0,41,0.00,,,0.00,,2013-04-19 18:43:00,
2013-04-19 13:52:00,48.0,25.0,29.97,WSW,237,2.0,2.0,40,0.00,,,0.00,,2013-04-19 18:52:00,
2013-04-19 14:02:00,48.0,25.0,29.97,NW,304,3.0,3.0,40,0.00,,,0.00,,2013-04-19 19:02:00,
2013-04-19 14:11:00,48.0,25.0,29.97,NW,304,3.0,3.0,40,0.00,,,0.00,,2013-04-19 19:11:00,
2013-04-19 14:21:00,49.0,25.0,29.96,West,279,4.0,4.0,39,0.00,,,0.00,,2013-04-19 19:21:00,
2013-04-19 14:32:00,50.0,26.0,29.96,WSW,248,4.0,4.0,39,0.00,,,0.00,,2013-04-19 19:32:00,
2013-04-19 14:42:00,50.0,26.0,29.96,WSW,248,4.0,4.0,39,0.00,,,0.00,,2013-04-19 19:42:00,
2013-04-19 14:52:00,50.0,27.0,29.96,NW,325,9.0,9.0,40,0.00,,,0.00,,2013-04-19 19:52:00,
2013-04-19 15:02:00,50.0,22.0,29.96,WNW,300,4.0,4.0,33,0.00,,,0.00,,2013-04-19 20:02:00,
2013-04-19 15:11:00,50.0,22.0,29.96,WNW,300,4.0,4.0,33,0.00,,,0.00,,2013-04-19 20:11:00,
2013-04-19 15:22:00,50.0,23.0,29.96,NW,325,3.0,3.0,34,0.00,,,0.00,,2013-04-19 20:22:00,
2013-04-19 15:32:00,51.0,26.0,29.96,WNW,295,7.0,7.0,37,0.00,,,0.00,,2013-04-19 20:32:00,
2013-04-19 15:42:00,50.0,25.0,29.96,NW,316,5.0,5.0,37,0.00,,,0.00,,2013-04-19 20:42:00,
2013-04-19 15:51:00,50.0,25.0,29.96,NW,316,5.0,5.0,37,0.00,,,0.00,,2013-04-19 20:51:00,
2013-04-19 16:01:00,51.0,25.0,29.95,NNE,15,5.0,5.0,36,0.00,,,0.00,,2013-04-19 21:01:00,
2013-04-19 16:11:00,52.0,25.0,29.95,NW,315,6.0,6.0,34,0.00,,,0.00,,2013-04-19 21:11:00,
2013-04-19 16:21:00,52.0,25.0,29.95,NW,315,6.0,6.0,34,0.00,,,0.00,,2013-04-19 21:21:00,
2013-04-19 16:32:00,50.0,22.0,29.96,WNW,284,5.0,5.0,33,0.00,,,0.00,,2013-04-19 21:32:00,
2013-04-19 16:42:00,50.0,22.0,29.96,WNW,284,5.0,5.0,33,0.00,,,0.00,,2013-04-19 21:42:00,
2013-04-19 16:52:00,50.0,23.0,29.96,NNW,338,3.0,3.0,34,0.00,,,0.00,,2013-04-19 21:52:00,
2013-04-19 17:02:00,51.0,25.0,29.96,NW,306,4.0,4.0,36,0.00,,,0.00,,2013-04-19 22:02:00,
2013-04-19 17:12:00,51.0,25.0,29.96,NW,306,4.0,4.0,36,0.00,,,0.00,,2013-04-19 22:12:00,
2013-04-19 17:22:00,50.0,23.0,29.96,WNW,303,1.0,1.0,34,0.00,,,0.00,,2013-04-19 22:22:00,
2013-04-19 17:33:00,51.0,22.0,29.97,WNW,290,10.0,10.0,32,0.00,,,0.00,,2013-04-19 22:33:00,
2013-04-19 17:42:00,51.0,22.0,29.97,WNW,290,10.0,10.0,32,0.00,,,0.00,,2013-04-19 22:42:00,
2013-04-19 17:52:00,50.0,23.0,29.97,West,267,5.0,5.0,35,0.00,,,0.00,,2013-04-19 22:52:00,
2013-04-19 18:03:00,51.0,24.0,29.98,NE,39,4.0,4.0,34,0.00,,,0.00,,2013-04-19 23:03:00,
2013-04-19 18:11:00,51.0,24.0,29.98,NE,39,4.0,4.0,34,0.00,,,0.00,,2013-04-19 23:11:00,
2013-04-19 18:22:00,50.0,25.0,29.98,NW,321,4.0,4.0,37,0.00,,,0.00,,2013-04-19 23:22:00,
2013-04-19 18:32:00,50.0,24.0,29.98,WNW,286,0.0,0.0,36,0.00,,,0.00,,2013-04-19 23:32:00,
2013-04-19 18:42:00,50.0,24.0,29.98,WNW,286,0.0,0.0,36,0.00,,,0.00,,2013-04-19 23:42:00,
2013-04-19 18:52:00,50.0,23.0,29.98,NW,321,3.0,3.0,35,0.00,,,0.00,,2013-04-19 23:52:00,
2013-04-19 19:02:00,50.0,24.0,29.98,WNW,296,5.0,5.0,36,0.00,,,0.00,,2013-04-20 00:02:00,
2013-04-19 19:12:00,50.0,24.0,29.98,WNW,296,5.0,5.0,36,0.00,,,0.00,,2013-04-20 00:12:00,
2013-04-19 19:21:00,50.0,23.0,29.98,NW,311,2.0,2.0,35,0.00,,,0.00,,2013-04-20 00:21:00,
2013-04-19 19:32:00,49.0,24.0,29.99,NW,304,2.0,2.0,37,0.00,,,0.00,,2013-04-20 00:32:00,
2013-04-19 19:42:00,49.0,24.0,29.99,NW,304,2.0,2.0,37,0.00,,,0.00,,2013-04-20 00:42:00,
2013-04-19 19:51:00,49.0,25.0,30.00,NNW,338,0.0,0.0,39,0.00,,,0.00,,2013-04-20 00:51:00,
2013-04-19 20:01:00,48.0,25.0,30.00,NNW,338,0.0,0.0,41,0.00,,,0.00,,2013-04-20 01:01:00,
2013-04-19 20:11:00,48.0,25.0,30.00,NNW,338,0.0,0.0,41,0.00,,,0.00,,2013-04-20 01:11:00,
2013-04-19 20:21:00,47.0,26.0,30.01,NNW,338,0.0,0.0,43,0.00,,,0.00,,2013-04-20 01:21:00,
2013-04-19 20:32:00,46.0,26.0,30.02,NNW,338,0.0,0.0,45,0.00,,,0.00,,2013-04-20 01:32:00,
2013-04-19 20:42:00,46.0,26.0,30.02,NNW,338,0.0,0.0,45,0.00,,,0.00,,2013-04-20 01:42:00,
2013-04-19 20:52:00,44.0,26.0,30.02,NNW,338,0.0,0.0,48,0.00,,,0.00,,2013-04-20 01:52:00,
2013-04-19 21:01:00,43.0,26.0,30.03,NNW,338,0.0,0.0,51,0.00,,,0.00,,2013-04-20 02:01:00,
2013-04-19 21:11:00,41.0,27.0,30.04,NNW,338,0.0,0.0,56,0.00,,,0.00,,2013-04-20 02:11:00,
2013-04-19 21:21:00,41.0,27.0,30.04,NNW,338,0.0,0.0,56,0.00,,,0.00,,2013-04-20 02:21:00,
2013-04-19 21:32:00,40.0,27.0,30.05,NNW,338,0.0,0.0,60,0.00,,,0.00,,2013-04-20 02:32:00,
2013-04-19 21:42:00,40.0,27.0,30.05,NNW,338,0.0,0.0,60,0.00,,,0.00,,2013-04-20 02:42:00,
2013-04-19 21:52:00,39.0,26.0,30.05,NNW,338,0.0,0.0,60,0.00,,,0.00,,2013-04-20 02:52:00,
2013-04-19 22:01:00,38.0,26.0,30.06,NNW,338,0.0,0.0,61,0.00,,,0.00,,2013-04-20 03:01:00,
2013-04-19 22:11:00,37.0,26.0,30.07,NNW,338,0.0,0.0,63,0.00,,,0.00,,2013-04-20 03:11:00,
2013-04-19 22:21:00,37.0,26.0,30.07,NNW,338,0.0,0.0,63,0.00,,,0.00,,2013-04-20 03:21:00,
2013-04-19 22:33:00,37.0,26.0,30.07,NNW,338,0.0,0.0,63,0.00,,,0.00,,2013-04-20 03:33:00,
2013-04-19 22:43:00,37.0,26.0,30.07,NNW,338,0.0,0.0,63,0.00,,,0.00,,2013-04-20 03:43:00,
2013-04-19 22:52:00,37.0,26.0,30.08,NNW,338,0.0,0.0,64,0.00,,,0.00,,2013-04-20 03:52:00,
2013-04-19 23:03:00,36.0,26.0,30.08,NNW,338,0.0,0.0,66,0.00,,,0.00,,2013-04-20 04:03:00,
2013-04-19 23:12:00,36.0,26.0,30.08,NNW,338,0.0,0.0,66,0.00,,,0.00,,2013-04-20 04:12:00,
2013-04-19 23:23:00,36.0,26.0,30.08,NNW,338,0.0,0.0,68,0.00,,,0.00,,2013-04-20 04:23:00,
2013-04-19 23:32:00,35.0,26.0,30.09,NNW,338,0.0,0.0,70,0.00,,,0.00,,2013-04-20 04:32:00,
2013-04-19 23:42:00,35.0,26.0,30.09,NNW,338,0.0,0.0,70,0.00,,,0.00,,2013-04-20 04:42:00,
2013-04-19 23:52:00,34.0,26.0,30.09,NNW,338,0.0,0.0,73,0.00,,,0.00,,2013-04-20 04:52:00,